TimePDT,TemperatureF,Dew PointF,Humidity,Sea Level PressureIn,VisibilityMPH,Wind Direction,Wind SpeedMPH,Gust SpeedMPH,PrecipitationIn,Events,Conditions,WindDirDegrees,DateUTC
12:52 AM,45.0,33.1,63,30.07,10.0,West,8.1,-,N/A,,Clear,260,2013-04-11 07:52:00
1:52 AM,43.0,32.0,65,30.09,10.0,WNW,5.8,-,N/A,,Clear,300,2013-04-11 08:52:00
2:52 AM,44.1,30.9,60,30.09,10.0,Calm,Calm,-,N/A,,Clear,0,2013-04-11 09:52:00
3:52 AM,42.1,32.0,67,30.09,10.0,SE,4.6,-,N/A,,Clear,140,2013-04-11 10:52:00
4:52 AM,45.0,30.0,56,30.10,10.0,WNW,6.9,-,N/A,,Clear,290,2013-04-11 11:52:00
5:52 AM,46.9,30.0,52,30.09,10.0,SW,8.1,-,N/A,,Clear,230,2013-04-11 12:52:00
6:52 AM,48.0,28.9,48,30.11,10.0,West,10.4,-,N/A,,Clear,270,2013-04-11 13:52:00
7:52 AM,46.4,32.0,57,30.11,10.0,WSW,6.9,-,N/A,,Clear,240,2013-04-11 14:52:00
8:52 AM,43.0,33.1,68,30.14,10.0,SSE,6.9,-,N/A,,Clear,160,2013-04-11 15:52:00
9:52 AM,44.1,34.0,68,30.15,10.0,South,6.9,-,N/A,,Clear,170,2013-04-11 16:52:00
10:52 AM,46.9,35.1,63,30.30,10.0,South,5.8,-,N/A,,Clear,170,2013-04-11 17:52:00
11:52 AM,52.0,32.0,47,30.16,10.0,SSW,9.2,-,N/A,,Clear,210,2013-04-11 18:52:00
12:52 PM,57.9,28.9,33,30.14,10.0,West,13.8,-,N/A,,Clear,270,2013-04-11 19:52:00
1:52 PM,61.0,27.0,27,30.12,10.0,WSW,16.1,-,N/A,,Clear,250,2013-04-11 20:52:00
2:52 PM,62.1,28.0,28,30.09,10.0,SSW,12.7,-,N/A,,Clear,210,2013-04-11 21:52:00
3:52 PM,64.0,26.1,24,30.07,10.0,West,12.7,23.0,N/A,,Clear,260,2013-04-11 22:52:00
4:52 PM,63.0,19.0,18,30.06,10.0,West,17.3,23.0,N/A,,Clear,270,2013-04-11 23:52:00
5:52 PM,62.1,18.0,18,30.06,10.0,WNW,13.8,-,N/A,,Clear,300,2013-04-12 00:52:00
6:52 PM,57.9,18.0,21,30.07,10.0,WNW,13.8,-,N/A,,Clear,290,2013-04-12 01:52:00
7:52 PM,52.0,19.9,28,30.08,10.0,West,10.4,-,N/A,,Clear,280,2013-04-12 02:52:00
8:52 PM,46.0,21.0,37,30.10,10.0,WNW,9.2,-,N/A,,Clear,300,2013-04-12 03:52:00
9:52 PM,46.0,24.1,42,30.12,10.0,WSW,4.6,-,N/A,,Clear,250,2013-04-12 04:52:00
10:52 PM,45.0,23.0,42,30.25,10.0,WSW,4.6,-,N/A,,Clear,240,2013-04-12 05:52:00
11:52 PM,44.1,23.0,43,30.11,10.0,West,9.2,-,N/A,,Clear,260,2013-04-12 06:52:00